User: anonymous   Login
Location: Unspecified
(43.4354°N, 0.0000°E)
Time: 12:24:37
(UTC+00:00)
Language:

Vanguard 2 Rocket - Orbit

View from above orbital plane
View from above orbital plane
View from above satellite
View from above satellite

Ground track
Ground track

The orbit data is extracted from the following two-line orbital elements,

1    12U 59001B   20295.25129524 +.00000384 +00000-0 +22938-3 0  9998
2    12 032.8988 270.8535 1666183 017.3116 347.7954 11.44337232294399
Epoch (UTC): 21 October 2020 06:01:51
Eccentricity: 0.1666183
inclination: 32.8988°
perigee height: 554 km
apogee height: 3326 km
right ascension of ascending node: 270.8535°
argument of perigee: 17.3116°
revolutions per day: 11.44337232
mean anomaly at epoch: 347.7954°
orbit number at epoch: 29439

The dashed part of the orbit path shows where the satellite is in the earth's shadow,  

DLR